Regional Weather Roundup
Issued by NWS Green Bay, WI

Home | Current Version | Previous Version | Text Only | Print | Product List | Glossary On
Versions: 1 2 3 4 5 6 7 8 9 10 11 12 13 14 15 16 17 18 19 20 21 22 23 24 25 26 27 28 29 30 31 32 33 34 35 36 37 38 39 40 41 42 43 44 45 46 47 48 49 50
000
ASUS43 KGRB 190259
RWRGRB

NORTH-CENTRAL AND NORTHEAST WISCONSIN REGIONAL WEATHER ROUNDUP
NATIONAL WEATHER SERVICE GREEN BAY WI
1000 PM CDT FRI APR 18 2014

WIZ005-009-010>012-018-019-190400-
NORTH CENTRAL WISCONSIN

CITY           SKY/WX    TMP DP  RH WIND       PRES   REMARKS
IRONWOOD       CLEAR     34  21  60 E7        30.31F
MANITOWISH WTR NOT AVBL
ARBOR VITAE    NOT AVBL
EAGLE RIVER    NOT AVBL
LAND O LAKES   NOT AVBL
RHINELANDER    CLEAR     32  22  66 E8        30.35S
PHILLIPS       NOT AVBL
ANTIGO         NOT AVBL
TOMAHAWK       NOT AVBL
MERRILL        NOT AVBL
$$

WIZ013-073-190400-
NORTHEAST WISCONSIN

CITY           SKY/WX    TMP DP  RH WIND       PRES   REMARKS
IRON MOUNTAIN  CLEAR     26  21  81 CALM      30.39R
MARINETTE      CLEAR     30  25  80 CALM      30.42R
$$

WIZ017-030-035>037-045-190400-
CENTRAL WISCONSIN

CITY           SKY/WX    TMP DP  RH WIND       PRES   REMARKS
MEDFORD        NOT AVBL
WAUSAU         CLEAR     37  20  50 E7        30.32S
MOSINEE        NOT AVBL
MARSHFIELD     CLEAR     40  24  53 E9        30.31S
WISC RAPIDS    CLEAR     41  23  48 E7        30.34R
STEVENS POINT  NOT AVBL
WAUPACA        NOT AVBL
SHAWANO        NOT AVBL
CLINTONVILLE   NOT AVBL
$$

WIZ038-039-048-051-190400-
FOX VALLEY

CITY           SKY/WX    TMP DP  RH WIND       PRES   REMARKS
NWS GREEN BAY  CLEAR     36  27  69 E7        30.40S
APPLETON       CLEAR     37  28  70 SE9       30.39R
OSHKOSH        CLEAR     36  27  69 SE7       30.39R
FOND DU LAC    CLEAR     36  25  64 E3        30.37F
$$

WIZ022-050-052-190400-
EAST CENTRAL WISCONSIN

CITY           SKY/WX    TMP DP  RH WIND       PRES   REMARKS
STURGEON BAY   CLEAR     34  25  69 E6        30.42S
MANITOWOC      NOT AVBL
SHEBOYGAN      CLEAR     31  26  82 NE5       30.40S
$$

LMZ563-521-522-541>543-190400-
LAKESHORE

STATION/POSITION TIME  TEMP    WIND        PRES    VSBY  WAVE
                       AIR SEA DIR/SP/G                  HT/PER
                 (UTC) (F)     (DEG/KT/KT) (MB)    (MI)  (FT/S)
SHEBOYGAN LKSHOR 0200   37      30/  6/  7 1030.6R
KEWAUNEE LKSHORE 0200   34      50/  2/  3 1030.3S
NORTHPORT PIER   0200   31     170/  2/  3 1030.5R
SISTER BAY LKSHO 0200   33      CALM  /  3   N/A
MENOMINEE LKSHOR 0200   27     360/  3/  3 1030.4F
$$



USA.gov is the U.S. government's official web portal to all federal, state and local government web resources and services.